Regional Weather Roundup
Issued by NWS Mt. Holly, NJ

Home | Current Version | Previous Version | Text Only | Print | Product List | Glossary On
Versions: 1 2 3 4 5 6 7 8 9 10 11 12 13 14 15 16 17 18 19 20 21 22 23 24 25 26 27 28 29 30 31 32 33 34 35 36 37 38 39 40 41 42 43 44 45 46 47 48 49 50
000
ASUS41 KPHI 030311
RWRPHI

REGIONAL WEATHER ROUNDUP
NATIONAL WEATHER SERVICE MOUNT HOLLY NJ
1100 PM EDT TUE JUN 02 2015

NOTE:  "FAIR" INDICATES FEW OR NO CLOUDS BELOW 12,000 FEET WITH NO
SIGNIFICANT WEATHER AND/OR OBSTRUCTIONS TO VISIBILITY.

 * = STATION DOES NOT REPORT PRECIPITATION (E.G. RAIN, SNOW, ETC.)
        OR FOG.

NJZ015>026-030400-
SOUTHERN NEW JERSEY

CITY           SKY/WX    TMP DP  RH WIND       PRES   REMARKS
POMONA         NOT AVBL
RIO GRANDE*    CLOUDY   N/A N/A N/A NE14G22   30.13R
MILLVILLE      LGT RAIN  55  53  93 NE9       30.13S
WRIGHTSTOWN    LGT RAIN  52  52 100 NE9       30.15S
MOUNT HOLLY    LGT RAIN  53  51  93 E3        30.17S
TRENTON        LGT RAIN  54  52  93 E5        30.17R

$$
NJZ001>014-030400-
NORTHERN NEW JERSEY

CITY           SKY/WX    TMP DP  RH WIND       PRES   REMARKS
SUSSEX         CLOUDY    53  51  93 CALM      30.19R
ANDOVER*         N/A     53  52  96 CALM      30.18S
MORRISTOWN     CLOUDY    57  54  88 CALM      30.18S
NEWARK         CLOUDY    55  54  94 NE3       30.18R
TETERBORO      CLOUDY    54  50  86 E3        30.18R
CALDWELL       CLOUDY    54  51  90 E5        30.19S
SOMERVILLE     CLOUDY    56  53  90 CALM      30.16S
ALLAIRE*       CLOUDY    54  46  76 NE6       30.18R
TOMS RIVER*    CLOUDY   N/A N/A N/A NE9       30.17S

$$
PAZ043-044-047-054-055-060>062-066>071-030400-
EASTERN PENNSYLVANIA

CITY           SKY/WX    TMP DP  RH WIND       PRES   REMARKS
PHILADELPHIA   LGT RAIN  56  52  86 NE12      30.16S
NORTH PHILA    LGT RAIN  56  51  84 E8        30.18S
BLUE BELL      CLOUDY    55  54  94 NE5       30.16S
DOYLESTOWN     LGT RAIN  53  53 100 CALM      30.16S
QUAKERTOWN*    CLOUDY    55  54  94 NE3       30.18S
POTTSTOWN      LGT RAIN  54  54 100 E3        30.18R
LANCASTER      CLOUDY    56  54  93 CALM      30.15F
COATESVILLE    CLOUDY    54  54 100 CALM      30.16S
READING        CLOUDY    56  55  97 N3        30.15F
ALLENTOWN      CLOUDY    56  53  90 NE5       30.17S
MOUNT POCONO   FOG       53  51  93 E5        30.17S VSB 1/4
HAZLETON       CLOUDY    55  54  94 N5        30.19F
WILKES BARRE   CLOUDY    56  53  90 CALM      30.17R

$$
DEZALL-MDZ008-012-015-019-020-030400-
DELAWARE AND EASTERN MARYLAND

CITY           SKY/WX    TMP DP  RH WIND       PRES   REMARKS
WILMINGTON     LGT RAIN  56  54  93 NE8       30.15S
DOVER          LGT RAIN  56  56 100 NE12      30.10S
GEORGETOWN     CLOUDY    57  55  93 NE13      30.13R
EASTON         RAIN      58  58 100 E13       30.15F
PATUXENT       CLOUDY    60  57  89 NE9       30.10S
OCEAN CITY     CLOUDY    59  57  93 NE10      30.09S
WALLOPS ISLAND LGT RAIN  61  60  97 NE14G24   30.08S
CAMBRIDGE      CLOUDY    59  55  88 E8        30.11S
SALISBURY      LGT RAIN  56  55  97 NE12      30.10S

$$
PAZ001-021-NYZ056-072-MDZ011-DCZ001-030400-
OTHER NEARBY LOCATIONS

CITY           SKY/WX    TMP DP  RH WIND       PRES   REMARKS
HARRISBURG     DRIZZLE   59  56  89 E3        30.15S
STATE COLLEGE  CLOUDY    54  51  89 N7        30.17S
WILLIAMSPORT   MOCLDY    55  51  86 CALM      30.16F
BINGHAMTON     CLOUDY    52  48  86 N7        30.18S
NEW YORK CITY  CLOUDY    53  51  93 E3        30.21R FOG
BALTIMORE      CLOUDY    57  54  88 NE8       30.14R
WASHINGTON DC  DRIZZLE   61  56  83 NE13      30.13R

$$



USA.gov is the U.S. government's official web portal to all federal, state and local government web resources and services.